AirNav   ATP
 
 358 users online  

3TE2 Texas Commerce Bank Building Heliport
Houston, Texas, USA

GOING TO HOUSTON?


FAA INFORMATION EFFECTIVE 14 SEPTEMBER 2017

Location

FAA Identifier: 3TE2
Lat/Long: 29-45-31.8210N / 095-21-49.7770W
29-45.530350N / 095-21.829617W
29.7588392 / -95.3638269
(estimated)
Elevation: 458 ft. / 140 m (estimated)
Variation: 06E (1985)
From city: 13 miles N of HOUSTON, TX
Time zone: UTC -5 (UTC -6 during Standard Time)
Zip code: 77002

Heliport Operations

Heliport use: Private use. Permission required prior to landing
Activation date: 05/1974
Control tower: no
ARTCC: HOUSTON CENTER
FSS: MONTGOMERY COUNTY FLIGHT SERVICE STATION
FOR FP FILING CALL CXO FSS 1-800-833-5602.
Attendance: UNATNDD
Wind indicator: no
Segmented circle: yes

Heliport Communications

WX ASOS at HOU (8 nm SE): PHONE 713-847-1462
WX ASOS at IAH (14 nm N): PHONE 281-443-6397
WX ASOS at LVJ (16 nm SE): 118.525 (281-992-1853)
WX AWOS-3 at AXH (16 nm S): 123.625 (281-431-6572)
WX ASOS at SGR (17 nm SW): 118.125 (281-242-7605)

Nearby radio navigation aids

VOR radial/distance  VOR name  Freq  Var
HUBr319/7.7HOBBY VOR/DME117.1005E
IAHr180/11.9HUMBLE VORTAC116.6005E
MHFr285/34.6TRINITY VOR/DME113.6007E
VUHr313/39.2SCHOLES VOR/DME113.0006E

 
NDB name  Hdg/Dist  Freq  Var  ID
NIXIN204/16.132605EBVP -... ...- .--.
SANJAC284/16.334705EJPA .--- .--. .-

Heliport Services

Runway Information

Helipad H1

Dimensions: 30 x 25 ft. / 9 x 8 m
Surface: wood
Traffic pattern: leftleft

Heliport Ownership and Management from official FAA records

Ownership: Privately-owned
Owner: TEXAS COMMERCE BANK
P.O. BOX 2558
HOUSTON, TX 77001
Phone 713-236-5536
Manager: SCOTT DENNIS
712 MAIN, SUITE 1100
HOUSTON, TX 77002
Phone 713-236-5536

Instrument Procedures

There are no published instrument procedures at 3TE2.

Some nearby airports with instrument procedures:

KHOU - William P Hobby Airport (8 nm SE)
KIAH - George Bush Intercontinental/Houston Airport (14 nm N)
KEFD - Ellington Airport (14 nm SE)
KLVJ - Pearland Regional Airport (16 nm SE)
KAXH - Houston Southwest Airport (16 nm S)
KIWS - West Houston Airport (16 nm W)
T41 - La Porte Municipal Airport (17 nm E)
KSGR - Sugar Land Regional Airport (17 nm SW)
 
Loc | Ops | Rwys | IFR | FBO | Links
Com | Nav | Svcs | Stats | Notes


 
Area around 3TE2 (Texas Commerce Bank Building Heliport)
 
Road maps at: MapQuest Bing Google
 
Aerial photo
No photo
 
Sectional chart

 
Airport distance calculator
Flying to Texas Commerce Bank Building Heliport? Find the distance to fly.

From to 3TE2

Sunrise and sunset
Times for 23-Sep-2017
 Local
(UTC-5)
 Zulu
(UTC)
Morning civil twilight06:4811:48
Sunrise07:1112:11
Sunset19:1600:16
Evening civil twilight19:4000:40

Current date and time
Zulu (UTC)  23-Sep-2017 10:05:36
Local (UTC-5)  23-Sep-2017 05:05:36
 
METAR
KHOU 
9nm SE 
230753Z 00000KT 10SM FEW015 FEW250 25/23 A2991
KEFD 
14nm SE 
230950Z 00000KT 10SM FEW020 FEW250 24/22 A2992
KIAH 
14nm N 
230953Z 02003KT 7SM MIFG SKC 23/23 A2991 RMK AO2 SLP127 T02330228
KLVJ 
16nm S 
221953Z AUTO 12011KT 10SM BKN035 BKN041 32/21 A2995 RMK AO2 SLP142 T03220211
KAXH 
16nm S 
230955Z AUTO 00000KT 1/2SM FG VV005 21/21 A2991 RMK AO2 T02130211
KSGR 
17nm SW 
221953Z 13011KT 10SM BKN055 32/21 A2993 RMK AO2 SLP136 T03220206
TAF
KHOU 
9nm SE 
230528Z 2306/2406 00000KT P6SM SKC FM231400 12007KT P6SM SCT020 FM232100 14008KT P6SM SCT040 FM240000 12004KT P6SM SCT250
KEFD 
14nm SE 
230400Z 2304/2410 12009KT 9999 SCT030 QNH2988INS BECMG 2308/2309 10006KT 8000 BR FEW020 SCT035 QNH2989INS BECMG 2313/2314 10006KT 9999 NSW SCT035 QNH2984INS BECMG 2408/2409 13006KT 8000 BR SCT030 QNH2985INS TX31/2321Z TN24/2312Z
KIAH 
14nm N 
230528Z 2306/2412 VRB03KT P6SM SKC FM230700 00000KT P6SM SKC TEMPO 2309/2313 MIFG FM231500 11007KT P6SM SCT030 FM232100 14007KT P6SM SCT040 FM240100 13003KT P6SM SKC
KSGR 
17nm SW 
230528Z 2306/2406 11004KT P6SM SCT250 FM231400 11007KT P6SM SCT020 FM232100 14008KT P6SM SCT040 FM240000 13004KT P6SM SCT250
NOTAMs
Click for the latest NOTAMs
NOTAMs are issued by the DoD/FAA and will open in a separate window not controlled by AirNav.

 

 
 

Would you like to see your business listed on this page?

 If your business provides an interesting product or service to pilots, flight crews, aircraft, or users of the Texas Commerce Bank Building Heliport, you should consider listing it here.  To start the listing process, click on the button below
 
Add a business
 

Other Pages about Texas Commerce Bank Building Heliport

Update a link
 
Copyright © AirNav, LLC. All rights reserved. Privacy Policy  Contact